Date String (YYYY-MM-DD hh:mm:ss) UTC,Instrument flags,Ambient pressure (hPa),Sample flow (lpm),Bypass flow (lpm),Sample temperature (°C),Ambient temperature (°C),ASC tube jacket temperature (°C),LED temperature (°C),Box temperature (°C),Sample RH (%),Span deviation,Mass concentration (μg/m³),Mass concentration (μg/m³),Mass concentration (μg/m³)
DateTimeUTC,F1_M11,P_M11,Q1_M11,Q2_M11,T1_M11,T2_M11,T3_M11,T4_M11,T5_M11,U1_M11,ZSPAN_M11,X0_M11,X2_M11,X1_M11
2022-06-20 08:00:00,,0823.7,4.99,0.00,29.5,27.7,00.0,38.4,31.3,22.1,0000.0,0005.27,0003.13,0002.32
2022-06-20 08:01:00,,0823.7,5.02,0.00,29.5,27.9,00.0,38.4,31.3,22.3,0000.0,0005.62,0003.14,0002.33
2022-06-20 08:02:00,,0823.7,5.01,0.00,29.5,28.0,00.0,38.4,31.4,22.4,0000.0,0005.58,0003.12,0002.32
2022-06-20 08:03:00,,0823.6,4.99,0.00,29.5,28.1,00.0,38.4,31.4,22.5,0000.0,0005.67,0003.13,0002.33
2022-06-20 08:04:00,,0823.6,5.01,0.00,29.6,28.2,00.0,38.4,31.4,22.4,0000.0,0005.86,0003.15,0002.33
2022-06-20 08:05:00,,0823.6,5.00,0.00,29.6,28.3,00.0,38.4,31.5,22.4,0000.0,0006.11,0003.20,0002.34
2022-06-20 08:06:00,,0823.6,4.99,0.00,29.6,28.4,00.0,38.4,31.5,22.3,0000.0,0006.04,0003.21,0002.34
2022-06-20 08:07:00,,0823.7,5.00,0.00,29.6,28.5,00.0,38.4,31.5,22.2,0000.0,0005.87,0003.22,0002.35
2022-06-20 08:08:00,,0823.7,5.00,0.00,29.6,28.5,00.0,38.4,31.5,22.1,0000.0,0005.91,0003.23,0002.36
2022-06-20 08:09:00,,0823.6,5.01,0.00,29.6,28.6,00.0,38.4,31.5,21.9,0000.0,0006.10,0003.26,0002.36
2022-06-20 08:10:00,,0823.6,5.00,0.00,29.7,28.6,00.0,38.5,31.6,21.8,0000.0,0006.13,0003.26,0002.37
2022-06-20 08:11:00,,0823.7,5.00,0.00,29.7,28.7,00.0,38.5,31.6,21.7,0000.0,0006.08,0003.28,0002.36
2022-06-20 08:12:00,,0823.7,5.00,0.00,29.7,28.7,00.0,38.5,31.6,21.6,0000.0,0005.71,0003.26,0002.35
2022-06-20 08:13:00,,0823.7,5.01,0.00,29.7,28.8,00.0,38.5,31.7,21.5,0000.0,0005.58,0003.25,0002.36
2022-06-20 08:14:00,,0823.7,5.00,0.00,29.7,28.8,00.0,38.5,31.7,21.4,0000.0,0006.32,0003.24,0002.35
2022-06-20 08:15:00,,0823.6,5.01,0.00,29.8,28.8,00.0,38.5,31.7,21.3,0000.0,0006.61,0003.23,0002.36
2022-06-20 08:16:00,,0823.6,5.00,0.00,29.8,28.9,00.0,38.5,31.8,21.2,0000.0,0006.42,0003.19,0002.36
2022-06-20 08:17:00,,0823.6,5.00,0.00,29.8,28.9,00.0,38.6,31.8,21.2,0000.0,0006.95,0003.25,0002.38
2022-06-20 08:18:00,,0823.6,5.00,0.00,29.8,28.5,00.0,38.5,31.7,21.2,0000.0,0007.23,0003.28,0002.39
2022-06-20 08:19:00,,0823.5,5.00,0.00,29.8,27.7,00.0,38.5,31.5,21.3,0000.0,0007.57,0003.32,0002.41
2022-06-20 08:20:00,,0823.5,5.00,0.00,29.7,27.4,00.0,38.4,31.4,21.3,0000.0,0007.60,0003.34,0002.42
2022-06-20 08:21:00,,0823.5,5.01,0.00,29.6,27.4,00.0,38.4,31.3,21.4,0000.0,0007.57,0003.33,0002.43
2022-06-20 08:22:00,,0823.5,5.00,0.00,29.6,27.5,00.0,38.4,31.3,21.4,0000.0,0007.47,0003.30,0002.44
2022-06-20 08:23:00,,0823.5,5.00,0.00,29.5,27.6,00.0,38.4,31.3,21.4,0000.0,0007.48,0003.31,0002.45
2022-06-20 08:24:00,,0823.6,4.99,0.00,29.5,27.7,00.0,38.4,31.3,21.5,0000.0,0007.56,0003.34,0002.46
2022-06-20 08:25:00,,0823.6,5.00,0.00,29.5,27.9,00.0,38.4,31.3,21.5,0000.0,0006.93,0003.35,0002.47
2022-06-20 08:26:00,,0823.6,5.01,0.00,29.5,28.0,00.0,38.4,31.4,21.6,0000.0,0006.76,0003.35,0002.47
2022-06-20 08:27:00,,0823.6,4.99,0.00,29.5,28.1,00.0,38.4,31.4,21.6,0000.0,0007.00,0003.35,0002.46
2022-06-20 08:28:00,,0823.6,4.99,0.00,29.5,28.2,00.0,38.4,31.4,21.6,0000.0,0006.76,0003.33,0002.47
2022-06-20 08:29:00,,0823.7,5.00,0.00,29.5,28.3,00.0,38.4,31.4,21.6,0000.0,0007.08,0003.33,0002.46
2022-06-20 08:30:00,,0823.7,5.00,0.00,29.6,28.4,00.0,38.4,31.5,21.6,0000.0,0006.66,0003.32,0002.45
2022-06-20 08:31:00,,0823.7,5.00,0.00,29.6,28.4,00.0,38.4,31.5,21.7,0000.0,0006.48,0003.30,0002.44
2022-06-20 08:32:00,,0823.7,4.99,0.00,29.6,28.5,00.0,38.4,31.5,21.7,0000.0,0006.47,0003.30,0002.43
2022-06-20 08:33:00,,0823.7,5.00,0.00,29.6,28.5,00.0,38.4,31.5,21.7,0000.0,0006.46,0003.30,0002.44
2022-06-20 08:34:00,,0823.7,5.01,0.00,29.6,28.6,00.0,38.4,31.6,21.7,0000.0,0006.57,0003.30,0002.44
2022-06-20 08:35:00,,0823.7,5.00,0.00,29.7,28.6,00.0,38.5,31.6,21.7,0000.0,0006.59,0003.28,0002.44
2022-06-20 08:36:00,,0823.7,4.99,0.00,29.7,28.7,00.0,38.5,31.6,21.6,0000.0,0006.46,0003.28,0002.45
2022-06-20 08:37:00,,0823.7,4.99,0.00,29.7,28.7,00.0,38.5,31.6,21.7,0000.0,0006.20,0003.28,0002.46
2022-06-20 08:38:00,,0823.7,5.00,0.00,29.7,28.8,00.0,38.5,31.7,21.6,0000.0,0005.93,0003.28,0002.48
2022-06-20 08:39:00,,0823.7,5.00,0.00,29.7,28.8,00.0,38.5,31.7,21.6,0000.0,0005.62,0003.26,0002.48
2022-06-20 08:40:00,,0823.7,5.00,0.00,29.8,28.8,00.0,38.5,31.7,21.6,0000.0,0004.99,0003.21,0002.47
2022-06-20 08:41:00,,0823.7,5.00,0.00,29.8,28.9,00.0,38.5,31.7,21.5,0000.0,0004.94,0003.21,0002.47
2022-06-20 08:42:00,,0823.7,5.01,0.00,29.8,28.9,00.0,38.5,31.8,21.5,0000.0,0004.93,0003.20,0002.47
2022-06-20 08:43:00,,0823.7,5.00,0.00,29.8,28.9,00.0,38.6,31.7,21.5,0000.0,0004.98,0003.21,0002.48
2022-06-20 08:44:00,,0823.7,5.00,0.00,29.8,28.2,00.0,38.5,31.5,21.6,0000.0,0005.27,0003.24,0002.48
2022-06-20 08:45:00,,0823.7,5.01,0.00,29.7,27.5,00.0,38.5,31.3,21.7,0000.0,0006.01,0003.22,0002.48
2022-06-20 08:46:00,,0823.6,4.99,0.00,29.7,27.3,00.0,38.4,31.3,21.9,0000.0,0006.21,0003.21,0002.48
2022-06-20 08:47:00,,0823.7,4.99,0.00,29.6,27.4,00.0,38.4,31.3,22.1,0000.0,0006.17,0003.20,0002.49
2022-06-20 08:48:00,,0823.6,5.00,0.00,29.5,27.5,00.0,38.4,31.3,22.1,0000.0,0006.39,0003.23,0002.48
2022-06-20 08:49:00,,0823.6,5.00,0.00,29.5,27.6,00.0,38.4,31.3,22.2,0000.0,0006.66,0003.25,0002.46
2022-06-20 08:50:00,,0823.6,4.99,0.00,29.5,27.8,00.0,38.4,31.3,22.2,0000.0,0006.77,0003.26,0002.45
2022-06-20 08:51:00,,0823.5,5.00,0.00,29.5,27.9,00.0,38.4,31.3,22.3,0000.0,0006.95,0003.30,0002.45
2022-06-20 08:52:00,,0823.5,5.00,0.00,29.5,28.0,00.0,38.4,31.4,22.3,0000.0,0007.04,0003.32,0002.45
2022-06-20 08:53:00,,0823.6,4.99,0.00,29.5,28.2,00.0,38.4,31.4,22.4,0000.0,0007.32,0003.37,0002.46
2022-06-20 08:54:00,,0823.7,5.01,0.00,29.5,28.3,00.0,38.4,31.4,22.5,0000.0,0007.37,0003.35,0002.46
2022-06-20 08:55:00,,0823.7,4.99,0.00,29.6,28.3,00.0,38.4,31.4,22.6,0000.0,0007.41,0003.36,0002.47
2022-06-20 08:56:00,,0823.7,5.01,0.00,29.6,28.4,00.0,38.4,31.5,22.6,0000.0,0006.78,0003.38,0002.48
2022-06-20 08:57:00,,0823.7,5.00,0.00,29.6,28.5,00.0,38.4,31.5,22.7,0000.0,0006.41,0003.38,0002.48
2022-06-20 08:58:00,,0823.7,5.00,0.00,29.6,28.6,00.0,38.4,31.5,22.7,0000.0,0006.44,0003.39,0002.47
2022-06-20 08:59:00,,0823.7,5.00,0.00,29.6,28.6,00.0,38.4,31.6,22.7,0000.0,0006.15,0003.34,0002.47
